contact:dominique.lefevre@mio.osupytheas.fr, maurice.libes@osupytheas.fr, didier.mallarino@osupytheas.fr
Project:EMSO http://www.emso-fr.org/EMSO-France
Depth: 2436.0 m
Title:EMSO Ligure Ouest : Data MII capteur AQUADOPP
Date,Latitude,Longitude,X_East,Y_North,Z_Up,Amplitude_X,Amplitude_Y,Amplitude_Z,Batterie,SoundSpeed,Heading,Pitch,Roll,Pressure,TIS,Speed,Direction
, degrees North, degrees East, m.s-1, m.s-1,m.s-1, 1, 1, 1, Volt, m.s-1, degree, degree, degree, dbar, degree_C, m.s-1, degree
2021-12-19T00:04:03,42.805,6.029,-0.023,0.031,-0.032,101.0,103.0,100.0,13.4,1505.2,326.9,-0.8,1.8,2470.559,13.28,0.038,323.4
2021-12-19T00:07:03,42.805,6.029,-0.038,0.017,-0.034,101.0,101.0,100.0,13.4,1505.2,325.0,-0.7,1.8,2470.526,13.28,0.041,294.1
2021-12-19T00:10:03,42.805,6.029,-0.046,0.049,0.03,102.0,103.0,100.0,13.4,1505.2,330.9,-0.8,1.9,2470.52,13.28,0.067,316.8
2021-12-19T00:13:03,42.805,6.029,-0.044,0.043,0.019,101.0,103.0,100.0,13.4,1505.2,326.2,-0.8,1.8,2470.492,13.28,0.061,314.3
2021-12-19T00:16:03,42.805,6.029,-0.057,0.066,0.032,101.0,104.0,100.0,13.4,1505.2,325.0,-0.7,1.8,2470.494,13.28,0.087,319.2
2021-12-19T00:19:03,42.805,6.029,-0.036,0.041,-0.007,101.0,102.0,101.0,13.4,1505.2,327.1,-0.8,1.8,2470.472,13.28,0.054,318.7
2021-12-19T00:22:03,42.805,6.029,-0.039,0.025,-0.007,101.0,102.0,100.0,13.3,1505.2,331.0,-0.7,1.8,2470.492,13.28,0.046,302.7
2021-12-19T00:25:03,42.805,6.029,-0.04,0.05,-0.017,100.0,104.0,101.0,13.4,1505.2,326.0,-0.8,1.8,2470.493,13.28,0.064,321.3
2021-12-19T00:28:03,42.805,6.029,-0.053,0.049,0.011,101.0,103.0,100.0,13.3,1505.2,325.1,-0.8,1.8,2470.464,13.28,0.072,312.8
2021-12-19T00:31:03,42.805,6.029,-0.043,0.069,0.042,102.0,102.0,101.0,13.3,1505.2,326.9,-0.8,1.8,2470.5,13.28,0.081,328.1
2021-12-19T00:34:03,42.805,6.029,-0.041,0.068,0.025,101.0,101.0,101.0,13.4,1505.2,329.2,-0.8,1.8,2470.469,13.28,0.079,328.9
2021-12-19T00:37:03,42.805,6.029,-0.024,0.047,0.003,102.0,101.0,101.0,13.4,1505.2,330.4,-0.7,1.8,2470.474,13.28,0.052,333.0
2021-12-19T00:40:03,42.805,6.029,-0.037,0.014,0.0,100.0,102.0,100.0,13.4,1505.2,331.9,-0.7,1.8,2470.475,13.28,0.039,290.7
2021-12-19T00:43:03,42.805,6.029,-0.05,0.05,0.023,102.0,104.0,99.0,13.4,1505.2,326.1,-0.7,1.8,2470.508,13.28,0.07,315.0
2021-12-19T00:46:03,42.805,6.029,-0.019,0.044,0.024,101.0,104.0,98.0,13.4,1505.2,326.5,-0.8,1.8,2470.458,13.28,0.047,336.6
2021-12-19T00:49:03,42.805,6.029,-0.019,0.034,0.0,101.0,106.0,100.0,13.3,1505.2,325.9,-0.7,1.8,2470.446,13.28,0.038,330.8
2021-12-19T00:52:03,42.805,6.029,-0.011,0.028,-0.011,102.0,104.0,100.0,13.4,1505.2,329.0,-0.8,1.8,2470.461,13.28,0.03,338.6
2021-12-19T00:55:03,42.805,6.029,-0.046,0.048,0.0,101.0,101.0,100.0,13.4,1505.2,324.0,-0.7,1.8,2470.454,13.28,0.066,316.2
2021-12-19T00:58:03,42.805,6.029,-0.058,0.045,0.0,100.0,102.0,100.0,13.4,1505.2,327.9,-0.8,1.8,2470.474,13.28,0.073,307.8
2021-12-19T01:04:03,42.805,6.029,-0.028,0.04,-0.004,102.0,105.0,102.0,13.4,1505.2,324.9,-0.7,1.8,2470.481,13.28,0.048,325.0
2021-12-19T01:07:03,42.805,6.029,-0.022,0.016,-0.039,101.0,103.0,100.0,13.4,1505.2,326.2,-0.7,1.8,2470.48,13.28,0.027,306.0
2021-12-19T01:10:03,42.805,6.029,0.0,0.039,-0.007,100.0,106.0,100.0,13.4,1505.2,332.0,-0.8,1.8,2470.517,13.28,0.039,0.0
2021-12-19T01:13:03,42.805,6.029,-0.024,0.041,0.003,101.0,103.0,100.0,13.4,1505.2,326.1,-0.7,1.8,2470.45,13.28,0.047,329.7
2021-12-19T01:16:03,42.805,6.029,-0.018,0.036,-0.007,101.0,105.0,100.0,13.4,1505.2,328.7,-0.7,1.8,2470.434,13.28,0.04,333.4
2021-12-19T01:19:03,42.805,6.029,-0.006,0.036,0.0,101.0,103.0,99.0,13.3,1505.2,329.6,-0.8,1.8,2470.44,13.28,0.036,350.5
2021-12-19T01:22:03,42.805,6.029,-0.029,0.057,0.001,102.0,105.0,100.0,13.4,1505.2,330.8,-0.7,1.8,2470.439,13.28,0.063,333.0
2021-12-19T01:25:03,42.805,6.029,-0.038,0.044,0.013,100.0,103.0,100.0,13.4,1505.2,324.2,-0.7,1.8,2470.433,13.28,0.058,319.2
2021-12-19T01:28:03,42.805,6.029,-0.018,0.032,-0.001,102.0,103.0,100.0,13.4,1505.2,326.6,-0.8,1.8,2470.47,13.28,0.036,330.6
2021-12-19T01:31:03,42.805,6.029,-0.006,0.043,0.01,102.0,105.0,100.0,13.4,1505.2,330.1,-0.7,1.8,2470.484,13.28,0.043,352.1
2021-12-19T01:34:03,42.805,6.029,-0.025,0.034,0.016,101.0,102.0,100.0,13.4,1505.2,325.1,-0.8,1.8,2470.492,13.28,0.042,323.7
2021-12-19T01:37:03,42.805,6.029,-0.045,0.032,-0.007,102.0,104.0,101.0,13.3,1505.2,326.5,-0.8,1.8,2470.467,13.28,0.055,305.4
2021-12-19T01:40:03,42.805,6.029,-0.036,0.075,0.011,101.0,104.0,99.0,13.4,1505.2,324.8,-0.8,1.8,2470.469,13.28,0.083,334.4
2021-12-19T01:43:03,42.805,6.029,-0.055,0.043,0.01,102.0,102.0,99.0,13.3,1505.2,326.0,-0.7,1.8,2470.483,13.28,0.069,308.0
2021-12-19T01:46:03,42.805,6.029,-0.038,0.041,0.001,104.0,102.0,99.0,13.4,1505.2,326.1,-0.8,1.8,2470.515,13.28,0.055,317.2
2021-12-19T01:49:03,42.805,6.029,-0.025,0.042,-0.016,101.0,103.0,100.0,13.4,1505.2,326.6,-0.8,1.8,2470.478,13.28,0.048,329.2
2021-12-19T01:52:03,42.805,6.029,-0.013,0.041,-0.004,103.0,104.0,99.0,13.4,1505.2,327.9,-0.7,1.8,2470.477,13.28,0.043,342.4
2021-12-19T01:55:03,42.805,6.029,-0.045,0.055,0.033,102.0,104.0,98.0,13.3,1505.2,324.1,-0.7,1.8,2470.506,13.28,0.071,320.7
2021-12-19T01:58:03,42.805,6.029,-0.046,0.044,-0.025,102.0,104.0,99.0,13.4,1505.2,326.9,-0.8,1.8,2470.495,13.28,0.063,313.7
2021-12-19T02:04:03,42.805,6.029,-0.019,0.039,0.005,102.0,102.0,100.0,13.4,1505.2,330.3,-0.8,1.8,2470.516,13.28,0.043,334.0
2021-12-19T02:07:03,42.805,6.029,-0.038,0.043,-0.009,101.0,103.0,99.0,13.4,1505.2,329.1,-0.8,1.8,2470.475,13.28,0.057,318.5
2021-12-19T02:10:03,42.805,6.029,-0.029,0.034,0.016,102.0,107.0,99.0,13.3,1505.2,324.9,-0.8,1.8,2470.471,13.28,0.044,319.5
2021-12-19T02:13:03,42.805,6.029,-0.024,0.059,0.016,100.0,103.0,99.0,13.4,1505.2,331.4,-0.7,1.8,2470.499,13.28,0.063,337.9
2021-12-19T02:16:03,42.805,6.029,-0.002,0.05,0.026,101.0,104.0,99.0,13.4,1505.2,328.7,-0.8,1.8,2470.465,13.28,0.05,357.7
2021-12-19T02:19:03,42.805,6.029,-0.039,0.05,0.019,100.0,103.0,99.0,13.4,1505.2,325.3,-0.7,1.8,2470.44,13.28,0.063,322.0
2021-12-19T02:22:03,42.805,6.029,-0.035,0.049,-0.013,101.0,103.0,100.0,13.4,1505.2,327.6,-0.7,1.8,2470.476,13.28,0.06,324.5
2021-12-19T02:25:03,42.805,6.029,-0.014,0.045,0.009,101.0,101.0,99.0,13.4,1505.2,325.9,-0.7,1.8,2470.488,13.28,0.047,342.7
2021-12-19T02:28:03,42.805,6.029,-0.026,0.036,0.044,101.0,102.0,99.0,13.4,1505.2,331.1,-0.7,1.8,2470.437,13.28,0.044,324.2
2021-12-19T02:31:03,42.805,6.029,-0.027,0.032,0.013,103.0,102.0,100.0,13.3,1505.2,331.0,-0.8,1.8,2470.412,13.28,0.041,319.8
2021-12-19T02:34:03,42.805,6.029,-0.045,0.02,0.0,101.0,103.0,100.0,13.4,1505.2,324.6,-0.7,1.8,2470.411,13.28,0.049,294.0
2021-12-19T02:37:03,42.805,6.029,-0.033,0.054,0.004,100.0,103.0,100.0,13.4,1505.2,328.5,-0.8,1.8,2470.459,13.28,0.063,328.6
2021-12-19T02:40:03,42.805,6.029,-0.018,0.036,-0.009,100.0,103.0,101.0,13.4,1505.2,327.0,-0.8,1.8,2470.475,13.28,0.04,333.4
2021-12-19T02:43:03,42.805,6.029,-0.033,0.041,0.021,100.0,103.0,100.0,13.4,1505.2,325.9,-0.7,1.8,2470.522,13.28,0.052,321.2
2021-12-19T02:46:03,42.805,6.029,-0.031,0.055,0.034,101.0,102.0,99.0,13.4,1505.2,328.2,-0.8,1.8,2470.468,13.28,0.063,330.6
2021-12-19T02:49:03,42.805,6.029,-0.025,0.016,-0.045,99.0,102.0,100.0,13.4,1505.2,328.7,-0.7,1.8,2470.462,13.28,0.029,302.6
2021-12-19T02:52:03,42.805,6.029,-0.008,0.038,0.009,103.0,103.0,100.0,13.4,1505.2,327.0,-0.8,1.8,2470.485,13.28,0.038,348.1
2021-12-19T02:55:03,42.805,6.029,-0.01,0.025,-0.019,100.0,105.0,99.0,13.4,1505.2,327.0,-0.7,1.8,2470.487,13.28,0.026,338.2
2021-12-19T02:58:03,42.805,6.029,-0.019,0.038,-0.016,101.0,102.0,99.0,13.4,1505.2,326.5,-0.7,1.8,2470.504,13.28,0.042,333.4
2021-12-19T03:04:03,42.805,6.029,-0.043,0.041,-0.018,100.0,102.0,101.0,13.3,1505.2,326.1,-0.8,1.8,2470.483,13.28,0.059,313.6
2021-12-19T03:07:03,42.805,6.029,-0.025,0.063,0.022,101.0,102.0,99.0,13.4,1505.2,330.4,-0.8,1.8,2470.542,13.28,0.067,338.4
2021-12-19T03:10:03,42.805,6.029,-0.003,0.055,0.005,102.0,101.0,100.0,13.4,1505.2,331.5,-0.8,1.8,2470.5,13.28,0.055,356.9
2021-12-19T03:13:03,42.805,6.029,-0.066,0.055,-0.021,102.0,101.0,99.0,13.3,1505.2,328.9,-0.7,1.8,2470.502,13.28,0.085,309.8
2021-12-19T03:16:03,42.805,6.029,-0.032,0.042,0.018,99.0,103.0,101.0,13.4,1505.2,329.9,-0.7,1.8,2470.485,13.28,0.052,322.7
2021-12-19T03:19:03,42.805,6.029,-0.018,0.041,0.03,100.0,103.0,100.0,13.4,1505.2,328.2,-0.7,1.8,2470.483,13.28,0.044,336.3
2021-12-19T03:22:03,42.805,6.029,-0.035,0.027,-0.001,100.0,102.0,101.0,13.4,1505.2,330.3,-0.7,1.8,2470.52,13.28,0.044,307.7
2021-12-19T03:25:03,42.805,6.029,-0.032,0.021,0.006,101.0,102.0,100.0,13.3,1505.2,325.1,-0.8,1.8,2470.51,13.28,0.038,303.3
2021-12-19T03:28:03,42.805,6.029,-0.013,0.037,0.011,101.0,104.0,100.0,13.3,1505.2,328.1,-0.7,1.8,2470.526,13.28,0.039,340.6
2021-12-19T03:31:03,42.805,6.029,-0.014,0.039,-0.022,101.0,101.0,100.0,13.3,1505.2,330.8,-0.7,1.8,2470.534,13.28,0.041,340.3
2021-12-19T03:34:03,42.805,6.029,-0.037,0.068,0.004,100.0,104.0,100.0,13.4,1505.2,324.4,-0.8,1.8,2470.501,13.28,0.077,331.4
2021-12-19T03:37:03,42.805,6.029,-0.009,0.045,0.035,100.0,105.0,100.0,13.4,1505.2,329.8,-0.7,1.8,2470.53,13.28,0.045,348.7
2021-12-19T03:40:03,42.805,6.029,-0.024,0.049,0.0,101.0,103.0,99.0,13.4,1505.2,327.7,-0.8,1.8,2470.479,13.28,0.054,333.9
2021-12-19T03:43:03,42.805,6.029,-0.018,0.043,0.054,101.0,105.0,99.0,13.4,1505.2,325.7,-0.8,1.8,2470.532,13.28,0.046,337.3
2021-12-19T03:46:03,42.805,6.029,-0.059,0.048,-0.01,101.0,102.0,100.0,13.3,1505.2,326.9,-0.7,1.8,2470.526,13.28,0.076,309.1
2021-12-19T03:49:03,42.805,6.029,-0.012,0.053,0.027,100.0,102.0,99.0,13.4,1505.2,327.5,-0.8,1.8,2470.508,13.28,0.054,347.2
2021-12-19T03:52:03,42.805,6.029,-0.033,0.045,0.001,100.0,103.0,99.0,13.4,1505.2,330.1,-0.8,1.9,2470.513,13.28,0.055,323.7
2021-12-19T03:55:03,42.805,6.029,0.0,0.036,-0.013,100.0,102.0,100.0,13.4,1505.2,324.5,-0.7,1.8,2470.519,13.28,0.036,0.0
2021-12-19T03:58:03,42.805,6.029,-0.05,0.042,-0.013,99.0,103.0,100.0,13.3,1505.2,325.1,-0.8,1.8,2470.535,13.28,0.065,310.0
2021-12-19T04:04:03,42.805,6.029,-0.044,0.045,0.021,101.0,102.0,100.0,13.4,1505.2,324.3,-0.7,1.8,2470.552,13.28,0.062,315.6
2021-12-19T04:07:03,42.805,6.029,-0.035,0.045,-0.019,101.0,104.0,99.0,13.4,1505.2,325.6,-0.8,1.8,2470.513,13.28,0.057,322.1
2021-12-19T04:10:03,42.805,6.029,-0.014,0.04,-0.012,100.0,102.0,100.0,13.3,1505.2,328.9,-0.8,1.8,2470.547,13.28,0.042,340.7
2021-12-19T04:13:03,42.805,6.029,-0.036,0.022,-0.01,100.0,101.0,100.0,13.3,1505.2,324.2,-0.8,1.8,2470.57,13.28,0.042,301.4
2021-12-19T04:16:03,42.805,6.029,-0.031,0.021,-0.016,104.0,102.0,99.0,13.4,1505.2,329.8,-0.8,1.8,2470.552,13.28,0.037,304.1
2021-12-19T04:19:03,42.805,6.029,-0.024,0.046,0.014,102.0,101.0,100.0,13.3,1505.2,329.5,-0.7,1.8,2470.542,13.28,0.051,332.4
2021-12-19T04:22:03,42.805,6.029,-0.019,0.032,-0.016,99.0,104.0,100.0,13.3,1505.2,324.8,-0.7,1.8,2470.578,13.28,0.037,329.3
2021-12-19T04:25:03,42.805,6.029,-0.007,0.036,0.006,101.0,103.0,99.0,13.3,1505.2,329.0,-0.8,1.8,2470.549,13.28,0.036,349.0
2021-12-19T04:28:03,42.805,6.029,-0.016,0.041,-0.027,102.0,103.0,99.0,13.4,1505.2,326.6,-0.7,1.8,2470.559,13.28,0.044,338.7
2021-12-19T04:31:03,42.805,6.029,-0.012,0.039,0.014,101.0,102.0,100.0,13.3,1505.2,324.8,-0.8,1.9,2470.573,13.28,0.04,342.9
2021-12-19T04:34:03,42.805,6.029,-0.043,0.053,0.013,100.0,103.0,100.0,13.4,1505.2,326.9,-0.8,1.8,2470.58,13.28,0.068,320.9
2021-12-19T04:37:03,42.805,6.029,-0.043,0.037,0.01,101.0,104.0,100.0,13.4,1505.2,329.5,-0.7,1.8,2470.579,13.28,0.056,310.7
2021-12-19T04:40:03,42.805,6.029,-0.024,0.06,0.026,101.0,106.0,99.0,13.4,1505.2,329.5,-0.8,1.8,2470.593,13.28,0.064,338.2
2021-12-19T04:43:03,42.805,6.029,-0.017,0.049,0.032,100.0,101.0,100.0,13.3,1505.2,329.1,-0.7,1.8,2470.583,13.28,0.051,340.9
2021-12-19T04:46:03,42.805,6.029,0.002,0.031,-0.024,100.0,101.0,100.0,13.3,1505.2,324.3,-0.8,1.8,2470.629,13.28,0.031,3.7
2021-12-19T04:49:03,42.805,6.029,-0.012,0.056,0.013,99.0,104.0,100.0,13.4,1505.2,329.5,-0.7,1.8,2470.61,13.28,0.057,347.9
2021-12-19T04:52:03,42.805,6.029,-0.01,0.043,0.035,101.0,103.0,99.0,13.4,1505.2,329.1,-0.8,1.8,2470.641,13.28,0.044,346.9
2021-12-19T04:55:03,42.805,6.029,-0.021,0.037,0.015,103.0,101.0,99.0,13.4,1505.2,326.2,-0.7,1.8,2470.669,13.28,0.042,330.4
2021-12-19T04:58:03,42.805,6.029,-0.013,0.044,0.023,101.0,102.0,100.0,13.4,1505.2,327.6,-0.8,1.9,2470.658,13.28,0.045,343.5
2021-12-19T05:04:03,42.805,6.029,-0.017,0.047,0.007,101.0,102.0,100.0,13.3,1505.2,326.9,-0.8,1.8,2470.666,13.28,0.049,340.1
2021-12-19T05:07:03,42.805,6.029,-0.02,0.055,0.005,102.0,102.0,100.0,13.4,1505.2,327.0,-0.8,1.8,2470.633,13.28,0.058,340.0
2021-12-19T05:10:03,42.805,6.029,0.004,0.009,-0.022,101.0,108.0,99.0,13.4,1505.2,325.6,-0.8,1.8,2470.656,13.28,0.009,24.0
2021-12-19T05:13:03,42.805,6.029,-0.047,0.045,0.0,101.0,102.0,100.0,13.4,1505.2,324.1,-0.8,1.8,2470.714,13.28,0.065,313.8
2021-12-19T05:16:03,42.805,6.029,-0.005,0.045,-0.008,101.0,105.0,100.0,13.4,1505.2,328.2,-0.8,1.8,2470.68,13.28,0.045,353.7
2021-12-19T05:19:03,42.805,6.029,-0.052,0.033,0.017,102.0,100.0,101.0,13.4,1505.2,326.5,-0.8,1.8,2470.649,13.28,0.061,302.4
2021-12-19T05:22:03,42.805,6.029,-0.014,0.059,0.018,101.0,103.0,100.0,13.3,1505.2,328.6,-0.8,1.8,2470.666,13.28,0.06,346.7
2021-12-19T05:25:03,42.805,6.029,-0.006,0.043,-0.011,101.0,103.0,100.0,13.4,1505.2,329.6,-0.7,1.8,2470.673,13.28,0.043,352.1
2021-12-19T05:28:03,42.805,6.029,-0.023,0.026,-0.022,99.0,105.0,99.0,13.4,1505.2,328.3,-0.7,1.8,2470.721,13.28,0.034,318.5
2021-12-19T05:31:03,42.805,6.029,-0.022,0.046,0.03,101.0,102.0,100.0,13.3,1505.2,327.7,-0.8,1.8,2470.644,13.28,0.05,334.4
2021-12-19T05:34:03,42.805,6.029,-0.004,0.032,0.03,100.0,104.0,100.0,13.4,1505.2,330.6,-0.7,1.8,2470.649,13.28,0.032,352.9
2021-12-19T05:37:03,42.805,6.029,-0.016,0.033,0.01,100.0,102.0,99.0,13.4,1505.2,325.4,-0.8,1.8,2470.692,13.28,0.036,334.1
2021-12-19T05:40:03,42.805,6.029,-0.027,0.055,0.03,101.0,100.0,102.0,13.3,1505.2,326.6,-0.7,1.8,2470.626,13.28,0.061,333.9
2021-12-19T05:43:03,42.805,6.029,-0.032,0.055,0.038,100.0,101.0,100.0,13.4,1505.2,331.9,-0.8,1.9,2470.621,13.28,0.063,329.8
2021-12-19T05:46:03,42.805,6.029,-0.032,0.03,-0.025,101.0,102.0,100.0,13.4,1505.2,325.5,-0.8,1.8,2470.692,13.28,0.043,313.1
2021-12-19T05:49:03,42.805,6.029,-0.037,0.04,0.017,101.0,102.0,99.0,13.4,1505.2,329.8,-0.7,1.8,2470.657,13.28,0.054,317.2
2021-12-19T05:52:03,42.805,6.029,-0.004,0.029,0.016,100.0,103.0,100.0,13.4,1505.2,330.6,-0.8,1.8,2470.668,13.28,0.029,352.2
2021-12-19T05:55:03,42.805,6.029,-0.021,0.032,-0.015,102.0,103.0,100.0,13.4,1505.2,331.1,-0.8,1.9,2470.704,13.28,0.038,326.7
2021-12-19T05:58:03,42.805,6.029,-0.029,0.054,-0.035,101.0,103.0,99.0,13.3,1505.2,331.8,-0.8,1.8,2470.689,13.28,0.061,331.8
2021-12-19T06:04:04,42.805,6.029,-0.027,0.038,-0.01,100.0,102.0,100.0,13.4,1505.2,324.6,-0.8,1.8,2470.671,13.28,0.046,324.6
2021-12-19T06:07:03,42.805,6.029,-0.013,0.033,0.0,101.0,104.0,100.0,13.4,1505.2,325.7,-0.7,1.8,2470.66,13.28,0.035,338.5
2021-12-19T06:10:03,42.805,6.029,-0.004,0.038,0.024,102.0,102.0,101.0,13.3,1505.2,329.4,-0.7,1.8,2470.706,13.28,0.038,354.0
2021-12-19T06:13:03,42.805,6.029,-0.013,0.043,0.0,101.0,100.0,100.0,13.4,1505.2,326.5,-0.8,1.8,2470.691,13.28,0.044,343.2
2021-12-19T06:16:03,42.805,6.029,-0.009,0.025,0.0,100.0,102.0,100.0,13.4,1505.2,326.9,-0.8,1.8,2470.671,13.28,0.026,340.2
2021-12-19T06:19:03,42.805,6.029,-0.023,0.036,-0.002,100.0,102.0,100.0,13.3,1505.2,327.4,-0.8,1.8,2470.713,13.28,0.042,327.4
2021-12-19T06:22:03,42.805,6.029,-0.002,0.053,0.022,101.0,104.0,100.0,13.4,1505.2,326.7,-0.8,1.8,2470.639,13.28,0.053,357.8
2021-12-19T06:25:03,42.805,6.029,-0.023,0.049,0.0,100.0,104.0,100.0,13.4,1505.2,324.3,-0.8,1.8,2470.717,13.28,0.054,334.9
2021-12-19T06:28:03,42.805,6.029,-0.053,0.015,-0.037,100.0,103.0,100.0,13.4,1505.2,326.3,-0.7,1.8,2470.663,13.28,0.055,285.8
2021-12-19T06:31:03,42.805,6.029,-0.038,0.032,0.007,101.0,102.0,100.0,13.4,1505.2,326.8,-0.7,1.8,2470.705,13.28,0.049,310.1
2021-12-19T06:34:03,42.805,6.029,-0.008,0.028,-0.016,103.0,102.0,99.0,13.3,1505.2,328.2,-0.7,1.8,2470.669,13.28,0.029,344.1
2021-12-19T06:37:03,42.805,6.029,-0.016,0.053,0.024,101.0,105.0,101.0,13.4,1505.2,329.0,-0.8,1.8,2470.681,13.28,0.055,343.2
2021-12-19T06:40:03,42.805,6.029,-0.039,0.02,-0.027,103.0,103.0,99.0,13.3,1505.2,329.1,-0.7,1.8,2470.667,13.28,0.043,297.1
2021-12-19T06:43:03,42.805,6.029,-0.017,0.034,0.0,101.0,102.0,100.0,13.4,1505.2,325.2,-0.7,1.8,2470.68,13.28,0.038,333.4
2021-12-19T06:46:03,42.805,6.029,-0.031,0.046,-0.001,100.0,102.0,100.0,13.4,1505.2,331.4,-0.7,1.8,2470.696,13.28,0.055,326.0
2021-12-19T06:49:03,42.805,6.029,0.005,0.056,0.018,100.0,102.0,100.0,13.3,1505.2,326.3,-0.7,1.8,2470.699,13.28,0.056,5.1
2021-12-19T06:52:03,42.805,6.029,-0.007,0.035,0.022,101.0,106.0,100.0,13.4,1505.2,323.9,-0.7,1.8,2470.707,13.28,0.035,348.7
2021-12-19T06:55:03,42.805,6.029,-0.013,0.032,-0.01,100.0,102.0,100.0,13.4,1505.2,327.4,-0.7,1.8,2470.658,13.28,0.034,337.9
2021-12-19T06:58:03,42.805,6.029,-0.039,0.031,-0.017,102.0,100.0,100.0,13.4,1505.2,331.3,-0.8,1.8,2470.698,13.28,0.049,308.5
2021-12-19T07:04:03,42.805,6.029,-0.026,0.032,-0.036,101.0,102.0,101.0,13.4,1505.2,326.8,-0.8,1.8,2470.714,13.28,0.041,320.9
2021-12-19T07:07:03,42.805,6.029,-0.011,0.052,0.042,101.0,102.0,99.0,13.4,1505.2,329.9,-0.8,1.8,2470.719,13.28,0.053,348.1
2021-12-19T07:10:03,42.805,6.029,-0.026,0.045,0.015,100.0,104.0,100.0,13.4,1505.2,330.1,-0.8,1.8,2470.726,13.28,0.051,330.0
2021-12-19T07:13:03,42.805,6.029,-0.035,0.044,-0.016,100.0,102.0,99.0,13.4,1505.2,331.4,-0.7,1.8,2470.695,13.28,0.056,321.5
2021-12-19T07:16:03,42.805,6.029,-0.03,0.043,-0.02,101.0,104.0,100.0,13.4,1505.2,330.5,-0.8,1.8,2470.702,13.28,0.052,325.1
2021-12-19T07:19:03,42.805,6.029,-0.059,0.051,0.001,107.0,101.0,100.0,13.4,1505.2,328.9,-0.8,1.8,2470.719,13.28,0.077,310.8
2021-12-19T07:22:03,42.805,6.029,-0.029,0.035,-0.002,100.0,102.0,99.0,13.4,1505.2,326.0,-0.8,1.8,2470.704,13.28,0.045,320.4
2021-12-19T07:25:03,42.805,6.029,-0.028,0.019,-0.006,101.0,104.0,100.0,13.3,1505.2,331.9,-0.7,1.8,2470.694,13.28,0.033,304.2
2021-12-19T07:28:03,42.805,6.029,-0.024,0.053,-0.011,100.0,101.0,100.0,13.3,1505.2,324.7,-0.7,1.8,2470.689,13.28,0.058,335.6
2021-12-19T07:31:03,42.805,6.029,-0.014,0.03,0.01,102.0,104.0,99.0,13.4,1505.2,328.8,-0.8,1.9,2470.697,13.28,0.033,335.0
2021-12-19T07:34:03,42.805,6.029,-0.038,0.064,-0.01,102.0,101.0,101.0,13.4,1505.2,331.7,-0.8,1.8,2470.702,13.28,0.074,329.3
2021-12-19T07:37:03,42.805,6.029,-0.024,0.03,0.009,101.0,100.0,101.0,13.4,1505.2,325.1,-0.8,1.8,2470.707,13.28,0.038,321.3
2021-12-19T07:40:03,42.805,6.029,-0.036,0.042,0.017,101.0,104.0,100.0,13.4,1505.2,328.3,-0.7,1.8,2470.742,13.28,0.055,319.4
2021-12-19T07:43:03,42.805,6.029,-0.013,0.023,-0.027,101.0,101.0,100.0,13.3,1505.2,324.8,-0.7,1.8,2470.733,13.28,0.026,330.5
2021-12-19T07:46:03,42.805,6.029,-0.024,0.01,-0.03,101.0,103.0,98.0,13.4,1505.2,328.0,-0.8,1.8,2470.678,13.28,0.026,292.6
2021-12-19T07:49:03,42.805,6.029,-0.015,0.027,-0.002,100.0,105.0,100.0,13.4,1505.2,325.9,-0.7,1.8,2470.726,13.28,0.03,330.9
2021-12-19T07:52:03,42.805,6.029,-0.018,0.032,-0.005,102.0,102.0,100.0,13.3,1505.2,325.7,-0.8,1.8,2470.702,13.28,0.036,330.6
2021-12-19T07:55:03,42.805,6.029,-0.027,0.028,-0.003,101.0,101.0,100.0,13.3,1505.2,327.0,-0.7,1.8,2470.732,13.28,0.038,316.0
2021-12-19T07:58:03,42.805,6.029,-0.014,0.03,0.0,101.0,101.0,99.0,13.4,1505.2,327.9,-0.8,1.8,2470.705,13.28,0.033,335.0
2021-12-19T08:04:03,42.805,6.029,-0.019,0.051,0.01,101.0,101.0,99.0,13.4,1505.2,329.2,-0.8,1.8,2470.749,13.28,0.054,339.6
2021-12-19T08:07:03,42.805,6.029,-0.026,0.051,0.025,101.0,101.0,99.0,13.4,1505.2,325.5,-0.7,1.8,2470.731,13.28,0.057,333.0
2021-12-19T08:10:03,42.805,6.029,-0.027,0.052,0.022,100.0,101.0,100.0,13.4,1505.2,325.0,-0.7,1.8,2470.714,13.28,0.058,332.6
2021-12-19T08:13:03,42.805,6.029,-0.022,0.029,0.01,102.0,100.0,100.0,13.3,1505.2,329.1,-0.7,1.8,2470.713,13.28,0.036,322.8
2021-12-19T08:16:03,42.805,6.029,-0.035,0.037,-0.028,101.0,106.0,99.0,13.3,1505.2,329.9,-0.7,1.8,2470.737,13.28,0.05,316.6
2021-12-19T08:19:03,42.805,6.029,-0.045,0.053,0.004,101.0,103.0,99.0,13.3,1505.2,327.5,-0.8,1.8,2470.75,13.28,0.069,319.7
2021-12-19T08:22:03,42.805,6.029,0.004,0.037,-0.008,102.0,102.0,99.0,13.3,1505.2,326.8,-0.8,1.9,2470.703,13.28,0.037,6.2
2021-12-19T08:25:03,42.805,6.029,-0.028,0.034,-0.043,101.0,102.0,100.0,13.3,1505.2,331.1,-0.8,1.8,2470.709,13.28,0.044,320.5
2021-12-19T08:28:03,42.805,6.029,-0.025,0.02,-0.009,101.0,104.0,100.0,13.3,1505.2,328.6,-0.7,1.8,2470.723,13.28,0.032,308.7
2021-12-19T08:31:03,42.805,6.029,-0.055,0.014,-0.03,101.0,101.0,100.0,13.3,1505.2,325.8,-0.8,1.8,2470.732,13.28,0.056,284.3
2021-12-19T08:34:03,42.805,6.029,-0.035,0.043,-0.004,101.0,103.0,101.0,13.4,1505.2,329.3,-0.7,1.8,2470.719,13.28,0.055,320.9
2021-12-19T08:37:03,42.805,6.029,-0.034,0.035,-0.018,101.0,103.0,99.0,13.4,1505.2,327.9,-0.8,1.8,2470.719,13.28,0.048,315.8
2021-12-19T08:40:03,42.805,6.029,-0.035,0.031,-0.018,100.0,102.0,99.0,13.4,1505.2,328.1,-0.7,1.9,2470.721,13.28,0.046,311.5
2021-12-19T08:43:03,42.805,6.029,-0.05,0.032,0.012,99.0,104.0,100.0,13.3,1505.2,325.7,-0.8,1.8,2470.677,13.28,0.059,302.6
2021-12-19T08:46:03,42.805,6.029,-0.025,0.023,0.005,99.0,102.0,100.0,13.4,1505.2,326.5,-0.8,1.8,2470.714,13.28,0.033,312.6
2021-12-19T08:49:03,42.805,6.029,-0.035,0.042,-0.005,100.0,102.0,101.0,13.4,1505.2,331.6,-0.8,1.8,2470.674,13.28,0.054,320.2
2021-12-19T08:52:03,42.805,6.029,-0.018,0.033,-0.004,101.0,102.0,100.0,13.4,1505.2,324.8,-0.7,1.8,2470.67,13.28,0.037,331.4
2021-12-19T08:55:03,42.805,6.029,-0.043,0.024,-0.03,100.0,101.0,100.0,13.4,1505.2,324.1,-0.7,1.8,2470.69,13.28,0.049,299.2
2021-12-19T08:58:03,42.805,6.029,-0.041,0.042,-0.008,100.0,101.0,100.0,13.4,1505.2,325.2,-0.8,1.8,2470.716,13.28,0.058,315.7
2021-12-19T09:04:03,42.805,6.029,-0.037,0.029,-0.039,101.0,102.0,100.0,13.4,1505.2,325.1,-0.7,1.8,2470.739,13.28,0.047,308.1
2021-12-19T09:07:03,42.805,6.029,-0.038,0.029,0.02,101.0,103.0,99.0,13.3,1505.2,323.8,-0.7,1.8,2470.734,13.28,0.047,307.3
2021-12-19T09:10:03,42.805,6.029,-0.039,0.035,0.005,101.0,102.0,99.0,13.4,1505.2,324.4,-0.7,1.8,2470.682,13.28,0.052,311.9
2021-12-19T09:13:03,42.805,6.029,-0.037,0.033,-0.01,100.0,103.0,98.0,13.4,1505.2,329.5,-0.8,1.8,2470.695,13.28,0.049,311.7
2021-12-19T09:16:03,42.805,6.029,-0.036,0.054,0.025,99.0,102.0,101.0,13.4,1505.2,327.3,-0.8,1.8,2470.719,13.28,0.064,326.3
2021-12-19T09:19:03,42.805,6.029,-0.033,0.022,-0.015,99.0,103.0,99.0,13.3,1505.2,328.1,-0.8,1.8,2470.707,13.28,0.039,303.7
2021-12-19T09:22:03,42.805,6.029,-0.07,0.05,0.009,101.0,103.0,99.0,13.4,1505.2,328.8,-0.8,1.8,2470.714,13.28,0.086,305.5
2021-12-19T09:25:03,42.805,6.029,-0.048,0.027,-0.009,100.0,102.0,100.0,13.4,1505.2,326.5,-0.7,1.8,2470.674,13.28,0.055,299.4
2021-12-19T09:28:03,42.805,6.029,-0.05,0.047,-0.013,102.0,101.0,99.0,13.4,1505.2,326.6,-0.8,1.8,2470.709,13.28,0.068,313.2
2021-12-19T09:31:03,42.805,6.029,-0.014,0.014,-0.029,100.0,102.0,99.0,13.4,1505.2,328.4,-0.7,1.8,2470.703,13.28,0.019,315.0
2021-12-19T09:34:03,42.805,6.029,-0.04,0.019,-0.037,101.0,101.0,102.0,13.4,1505.2,328.7,-0.7,1.8,2470.687,13.28,0.044,295.4
2021-12-19T09:37:03,42.805,6.029,-0.001,0.017,-0.011,100.0,103.0,100.0,13.4,1505.2,331.5,-0.7,1.8,2470.69,13.28,0.017,356.6
2021-12-19T09:40:03,42.805,6.029,-0.043,0.034,-0.007,99.0,103.0,100.0,13.3,1505.2,330.4,-0.7,1.8,2470.708,13.28,0.054,308.3
2021-12-19T09:43:03,42.805,6.029,-0.027,0.039,0.024,101.0,103.0,101.0,13.4,1505.2,331.1,-0.8,1.8,2470.708,13.28,0.047,325.3
2021-12-19T09:46:03,42.805,6.029,-0.044,0.036,0.002,104.0,104.0,100.0,13.4,1505.2,329.2,-0.8,1.8,2470.691,13.28,0.056,309.3
2021-12-19T09:49:03,42.805,6.029,-0.028,0.012,-0.032,101.0,100.0,100.0,13.4,1505.2,326.1,-0.7,1.8,2470.633,13.28,0.03,293.2
2021-12-19T09:52:03,42.805,6.029,-0.031,0.036,0.006,98.0,104.0,100.0,13.3,1505.2,329.5,-0.7,1.8,2470.683,13.28,0.047,319.3
2021-12-19T09:55:03,42.805,6.029,-0.03,0.059,0.049,99.0,104.0,99.0,13.4,1505.2,327.2,-0.7,1.8,2470.654,13.28,0.066,333.0
2021-12-19T09:58:03,42.805,6.029,-0.003,0.027,-0.003,100.0,102.0,99.0,13.4,1505.2,329.2,-0.7,1.8,2470.669,13.28,0.027,353.7